Tracking 19192 objects as of 18-Jun-2018
HD Live streaming from Space Station
objects crossing your sky now

FENGYUN 1C DEB

Track FENGYUN 1C DEB now!
10-day predictions


NORAD ID: 31774
Int'l Code: 1999-025CFZ
Perigee: 819.0 km
Apogee: 924.8 km
Inclination: 99.0 °
Period: 102.2 minutes
Semi major axis: 7242 km
RCS: 0.0108 m2 (small)
Launch date: May 10, 1999
Source: People's Republic of China (PRC)
Launch site: Taiyaun Space Center, China (TSC)

Note: This is SATELLITE DEBRIS
aabbcc
Your satellite tracking list
Your tracking list is empty




NASA's NSSDC Master Catalog

Two Line Element Set (TLE):
1 31774U 99025CFZ 18169.35661603 +.00000312 +00000-0 +20305-3 0  9991
2 31774 098.9508 209.7726 0073035 032.3338 328.2277 14.08426985244228
Source of the keplerian elements: AFSPC